Simultaneous Nadir Overpasses (SNOs) Predictions

Prediction of SNOs between LANDSAT-8 and METOP-A Satellite Orbit:

Table of predicted SNOs for the next 14.0 days since TLE Epoch: 12/8/2018
Index Date (LANDSAT-8) Time (LANDSAT-8) Lat,Lon (LANDSAT-8) SZA (LANDSAT-8 ) Date (METOP-A) Time (METOP-A) Lat,Lon (METOP-A) SZA (METOP-A ) Distance(km) Time Diff (sec)
1 12/10/2018 04:31:50 -81.42, -22.74 73.11 12/10/2018 04:31:15 -81.42, -22.93 73.15 3.15 35
2 12/10/2018 05:21:16 81.43, 144.97 106.91 12/10/2018 05:21:54 81.43, 144.99 106.93 0.25 38
3 12/13/2018 00:06:05 -81.42, 43.57 72.94 12/13/2018 00:05:30 -81.42, 43.57 72.95 0.52 35
4 12/13/2018 00:55:31 81.42,-148.74 107.08 12/13/2018 00:56:09 81.43,-148.56 107.12 3.25 38
5 12/15/2018 19:40:19 -81.43, 110.24 72.78 12/15/2018 19:39:44 -81.43, 110.44 72.77 3.29 35
6 12/15/2018 20:29:44 81.43, -82.09 107.23 12/15/2018 20:30:23 81.43, -82.12 107.25 0.52 39
7 12/18/2018 15:14:33 -81.42, 176.51 72.73 12/18/2018 15:13:59 -81.42, 176.50 72.75 0.38 34
8 12/18/2018 16:03:59 81.42, -15.84 107.27 12/18/2018 16:04:38 81.43, -15.70 107.31 2.54 39
9 12/21/2018 10:48:47 -81.43,-116.85 72.70 12/21/2018 10:48:13 -81.43,-116.67 72.70 3.00 34




NCC Satellite Simultaneous Nadir Overpasses (SNOs) Prediction Service
